Overview Statistics Trail Chart Weather Telemetry Raw packets
 

This is the latest recevied weather packets stored in our database for station/object N8TWM-13. If no packets are shown the sender has not sent any weather packets the latest 10 day(s).

<< 1 2 3 4 5 6 7 >>
Time Temp. Humidity Pressure Rain* Wind** Luminosity Snow
1788599579 21.11° C 95% 1016.4 hPa 36.58 mm - 0 W/m² -
1788599277 21.11° C 95% 1016.2 hPa 25.91 mm - 0 W/m² -
1788598974 21.11° C 95% 1016.2 hPa 11.94 mm - 0 W/m² -
1788598673 21.11° C 95% 1015.9 hPa 3.05 mm - 0 W/m² -
1788598373 21.11° C 95% 1015.6 hPa 1.27 mm - 0 W/m² -
1788598077 21.67° C 96% 1015.6 hPa 0 mm - 0 W/m² -
1788597762 21.67° C 96% 1015.3 hPa 1.78 mm - 0 W/m² -
1788597457 21.11° C 95% 1015.2 hPa 1.78 mm - 0 W/m² -
1788597152 21.11° C 95% 1014.7 hPa 1.27 mm - 0 W/m² -
1788596848 21.11° C 95% 1014.3 hPa 1.27 mm - 0 W/m² -
1788596544 21.11° C 95% 1014.4 hPa 1.78 mm - 0 W/m² -
1788596238 21.11° C 95% 1014.3 hPa 3.56 mm - 0 W/m² -
1788595934 21.11° C 95% 1014.3 hPa 6.6 mm - 0 W/m² -
1788595633 21.11° C 95% 1014 hPa 4.83 mm - 0 W/m² -
1788595333 21.11° C 95% 1014 hPa 0 mm - 0 W/m² -
1788595032 21.11° C 95% 1013.7 hPa 0 mm - 0 W/m² -
1788594732 21.11° C 95% 1013.3 hPa 0 mm - 0 W/m² -
1788594430 21.11° C 95% 1013.3 hPa 0 mm - 0 W/m² -
1788594127 21.11° C 95% 1013.8 hPa 0 mm - 0 W/m² -
1788593822 21.11° C 95% 1014 hPa 0 mm - 0 W/m² -
1788593517 21.11° C 95% 1014.4 hPa 0 mm - 0 W/m² -
1788593217 21.11° C 95% 1014.3 hPa 0 mm - 0 W/m² -
1788592912 21.11° C 95% 1014.5 hPa 0 mm - 0 W/m² -
1788592609 21.11° C 95% 1014.2 hPa 0 mm - 0 W/m² -
1788592304 21.11° C 95% 1014.2 hPa 0 mm - 0 W/m² -

* Rain latest hour (hover to see other rain measurements)
** Current wind speed in m/s (hover to see current wind gust speed)